Weather History for Waupaca, WI

Change the Weather History Date:

Sunday, April 21, 2013

  Actual Average Record
Temperature  
Mean Temperature 36 °F -  
Max Temperature 44 °F 60 °F 86 °F (1985)
Min Temperature 28 °F 38 °F 20 °F (1959)
Degree Days  
Heating Degree Days 29    
Moisture  
Dew Point 29 °F    
Average Humidity 73    
Maximum Humidity 93    
Minimum Humidity 57    
Precipitation  
Precipitation 0.01 in - - ()
Sea Level Pressure  
Sea Level Pressure 30.36 in    
Wind  
Wind Speed 7 mph (SE)    
Max Wind Speed 17 mph    
Max Gust Speed 24 mph    
Visibility 9 miles    
Events Rain , Snow    
Averages and records for this station are not official NWS values.
T = Trace of Precipitation, MM = Missing Value Source: NWS Daily Summary

Daily Weather History Graph

Daily Weather History Graph

Search for Another Location

Airport:

Trip Planner

Search our weather history database for the weather conditions in past years. The results will help you decide how hot, cold, wet, or windy it might be!

Date:

Astronomy

Apr. 21, 2013 Rise Set
Actual Time 6:01 AM CDT 7:48 PM CDT
Civil Twilight 5:31 AM CDT 8:19 PM CDT
Nautical Twilight 4:53 AM CDT 8:56 PM CDT
Astronomical Twilight 4:12 AM CDT 9:37 PM CDT
Moon 3:24 PM CDT (4/21) 3:34 AM CDT (4/21)
Length of Visible Light 14h 48m
Length of Day
13h 46m
Waxing Gibbous, 80% of the Moon is Illuminated
Apr 21
Waxing Gibbous
Apr 25
Full
May 2
Last Quarter
May 9
New
May 17
First Quarter

Hourly Weather History & Observations

Time (CDT) Temp. Windchill Dew Point Humidity Pressure Visibility Wind Dir Wind Speed Gust Speed Precip Events Conditions
12:15 AM 28.4 °F - 21.2 °F 74% 30.38 in 10.0 mi Calm Calm - N/A   Clear
12:35 AM 30.2 °F - 23.0 °F 75% 30.39 in 10.0 mi Calm Calm - N/A   Clear
12:55 AM 28.4 °F - 23.0 °F 80% 30.40 in 10.0 mi Calm Calm - N/A   Clear
1:15 AM 28.4 °F - 21.2 °F 74% 30.40 in 10.0 mi Calm Calm - N/A   Clear
1:35 AM 28.4 °F 23.3 °F 23.0 °F 80% 30.41 in 10.0 mi SE 4.6 mph - N/A   Clear
4:35 AM 32.0 °F 27.5 °F 26.6 °F 80% 30.43 in 10.0 mi SE 4.6 mph - N/A   Overcast
4:55 AM 32.0 °F 27.5 °F 26.6 °F 80% 30.43 in 10.0 mi SE 4.6 mph - N/A   Overcast
5:15 AM 32.0 °F 27.5 °F 26.6 °F 80% 30.43 in 10.0 mi SE 4.6 mph - N/A   Overcast
5:35 AM 32.0 °F 27.5 °F 26.6 °F 80% 30.44 in 10.0 mi SE 4.6 mph - N/A   Mostly Cloudy
5:55 AM 32.0 °F 26.4 °F 26.6 °F 80% 30.44 in 10.0 mi SE 5.8 mph - N/A   Mostly Cloudy
6:15 AM 32.0 °F 27.5 °F 26.6 °F 80% 30.44 in 10.0 mi SE 4.6 mph - N/A   Overcast
6:55 AM 32.0 °F 27.5 °F 26.6 °F 80% 30.47 in 10.0 mi SE 4.6 mph - N/A   Overcast
7:35 AM 33.8 °F 29.6 °F 26.6 °F 75% 30.48 in 10.0 mi SSE 4.6 mph - N/A   Overcast
7:55 AM 33.8 °F 29.6 °F 28.4 °F 81% 30.48 in 10.0 mi SSE 4.6 mph - N/A   Overcast
8:15 AM 35.6 °F 31.7 °F 26.6 °F 70% 30.49 in 10.0 mi SSE 4.6 mph - N/A   Overcast
8:35 AM 35.6 °F 30.7 °F 26.6 °F 70% 30.49 in 10.0 mi SSE 5.8 mph - N/A   Overcast
8:55 AM 35.6 °F 29.2 °F 26.6 °F 70% 30.49 in 10.0 mi SSE 8.1 mph - N/A   Overcast
9:15 AM 37.4 °F 30.3 °F 26.6 °F 65% 30.48 in 10.0 mi South 10.4 mph - N/A   Overcast
9:35 AM 37.4 °F 28.2 °F 28.4 °F 70% 30.48 in 5.0 mi South 16.1 mph - N/A Snow Light Snow
9:55 AM 35.6 °F 26.6 °F 30.2 °F 81% 30.48 in 2.5 mi South 13.8 mph 19.6 mph N/A Snow Light Snow
10:15 AM 35.6 °F 27.5 °F 30.2 °F 81% 30.48 in 4.0 mi SSE 11.5 mph 17.3 mph N/A Snow Light Snow
10:35 AM 37.4 °F 30.3 °F 32.0 °F 81% 30.48 in 10.0 mi South 10.4 mph - N/A Snow Light Snow
10:55 AM 37.4 °F 28.5 °F 30.2 °F 75% 30.48 in 10.0 mi SSE 15.0 mph 18.4 mph N/A Snow Light Snow
11:15 AM 37.4 °F 29.3 °F 30.2 °F 75% 30.47 in 4.0 mi SSE 12.7 mph - N/A Snow Light Snow
11:35 AM 37.4 °F 29.3 °F 32.0 °F 81% 30.46 in 4.0 mi SSE 12.7 mph 18.4 mph N/A Snow Light Snow
11:55 AM 35.6 °F 28.0 °F 30.2 °F 81% 30.45 in 7.0 mi SSE 10.4 mph 18.4 mph N/A Rain Light Rain
12:15 PM 37.4 °F 29.8 °F 30.2 °F 75% 30.44 in 5.0 mi SE 11.5 mph - N/A Snow Light Snow
12:35 PM 35.6 °F 27.5 °F 30.2 °F 81% 30.43 in 1.8 mi SSE 11.5 mph 19.6 mph N/A Snow Light Snow
12:55 PM 35.6 °F 26.6 °F 32.0 °F 87% 30.43 in 1.2 mi SSE 13.8 mph 18.4 mph N/A Snow Light Snow
1:55 PM 33.8 °F 26.4 °F 32.0 °F 93% 30.40 in 2.0 mi SE 9.2 mph - 0.01 in Snow Light Snow
2:15 PM 33.8 °F 25.8 °F 32.0 °F 93% 30.38 in 2.0 mi ESE 10.4 mph - N/A Snow Light Snow
2:35 PM 35.6 °F 25.9 °F 33.8 °F 93% 30.38 in 7.0 mi ESE 16.1 mph 20.7 mph N/A   Overcast
2:55 PM 37.4 °F 27.8 °F 35.6 °F 93% 30.36 in 10.0 mi ESE 17.3 mph 24.2 mph N/A   Overcast
3:55 PM 37.4 °F 29.3 °F 32.0 °F 81% 30.34 in 7.0 mi ESE 12.7 mph - N/A Rain Rain
4:15 PM 37.4 °F 29.3 °F 32.0 °F 81% 30.33 in 7.0 mi ESE 12.7 mph - N/A Rain Light Rain
4:55 PM 39.2 °F 32.0 °F 32.0 °F 75% 30.31 in 10.0 mi ESE 11.5 mph 20.7 mph N/A   Scattered Clouds
5:15 PM 39.2 °F 32.0 °F 32.0 °F 75% 30.29 in 10.0 mi East 11.5 mph 18.4 mph N/A   Mostly Cloudy
5:35 PM 41.0 °F 34.3 °F 32.0 °F 70% 30.28 in 10.0 mi East 11.5 mph - N/A   Mostly Cloudy
5:55 PM 42.8 °F 36.6 °F 30.2 °F 61% 30.27 in 10.0 mi ESE 11.5 mph - N/A   Scattered Clouds
6:15 PM 42.8 °F 36.6 °F 30.2 °F 61% 30.26 in 10.0 mi ESE 11.5 mph - N/A   Clear
6:35 PM 44.6 °F 38.8 °F 30.2 °F 57% 30.25 in 10.0 mi ESE 11.5 mph - N/A   Clear
6:55 PM 42.8 °F 36.2 °F 28.4 °F 57% 30.24 in 10.0 mi ESE 12.7 mph 16.1 mph N/A   Clear
7:15 PM 42.8 °F 36.6 °F 28.4 °F 57% 30.25 in 10.0 mi SE 11.5 mph - N/A   Clear
7:35 PM 42.8 °F 36.6 °F 28.4 °F 57% 30.24 in 10.0 mi SE 11.5 mph 17.3 mph N/A   Clear
7:55 PM 41.0 °F 35.2 °F 28.4 °F 61% 30.24 in 10.0 mi ESE 9.2 mph - N/A   Clear
8:15 PM 41.0 °F 35.8 °F 28.4 °F 61% 30.24 in 10.0 mi ESE 8.1 mph - N/A   Clear
8:35 PM 41.0 °F 34.7 °F 30.2 °F 65% 30.23 in 10.0 mi ESE 10.4 mph - N/A   Clear
8:55 PM 41.0 °F 36.4 °F 30.2 °F 65% 30.24 in 10.0 mi SE 6.9 mph - N/A   Clear
9:15 PM 41.0 °F 35.8 °F 30.2 °F 65% 30.24 in 10.0 mi SE 8.1 mph - N/A   Clear
9:35 PM 41.0 °F 35.8 °F 30.2 °F 65% 30.24 in 10.0 mi SE 8.1 mph - N/A   Clear
9:55 PM 41.0 °F 34.3 °F 30.2 °F 65% 30.23 in 10.0 mi SE 11.5 mph - N/A   Clear
10:15 PM 41.0 °F 35.2 °F 30.2 °F 65% 30.23 in 10.0 mi SE 9.2 mph - N/A   Mostly Cloudy
10:35 PM 42.8 °F 38.0 °F 30.2 °F 61% 30.23 in 10.0 mi SSE 8.1 mph - N/A   Overcast
10:55 PM 42.8 °F 38.6 °F 30.2 °F 61% 30.23 in 10.0 mi SSE 6.9 mph - N/A   Overcast
11:15 PM 42.8 °F 38.6 °F 30.2 °F 61% 30.22 in 10.0 mi SSE 6.9 mph - N/A   Overcast
11:35 PM 42.8 °F 37.0 °F 30.2 °F 61% 30.21 in 10.0 mi SSE 10.4 mph - N/A   Overcast
11:55 PM 42.8 °F 36.6 °F 32.0 °F 66% 30.21 in 10.0 mi SSE 11.5 mph - N/A   Overcast